FW6934 Weather Reports


time (UTC)temp
F
wind
direction
speed
knots
gust
knots
rain 1hr
in
rain 24hr
in
rain mn
in
humidity
%
barometer
mb
20260503044557 59 305 0.0 0.0 0.00 0.01 0.01 82 1000.3
20260503044046 60 306 0.0 0.0 0.00 0.01 0.01 82 1000.3
20260503043534 60 308 0.0 0.0 0.00 0.01 0.01 81 1000.3
20260503043004 60 308 0.0 1.7 0.00 0.01 0.01 81 1000.4
20260503042555 60 308 0.0 2.6 0.00 0.01 0.01 81 1000.4
20260503042044 60 308 0.9 2.6 0.00 0.01 0.01 80 1000.4
20260503041505 61 275 1.7 2.6 0.00 0.01 0.01 80 1000.4
20260503041056 61 229 0.0 0.0 0.00 0.01 0.01 79 1000.5
20260503040544 61 229 0.0 0.0 0.00 0.01 0.01 79 1000.5
20260503040004 61 229 0.0 0.0 0.00 0.01 0.01 78 1000.4
20260503035555 61 229 0.0 0.0 0.00 0.01 0.01 78 1000.3
20260503035042 62 229 0.0 0.0 0.00 0.01 0.01 78 1000.2
20260503034503 62 229 0.0 0.0 0.00 0.01 0.01 78 1000.1
20260503034054 62 229 0.0 0.0 0.00 0.01 0.01 77 1000.0
20260503033545 62 229 0.0 0.0 0.00 0.01 0.01 77 999.9
20260503033103 62 229 0.0 0.0 0.00 0.01 0.01 77 999.9
20260503032551 63 229 0.0 0.0 0.00 0.01 0.01 76 999.8
20260503032042 63 229 0.0 0.0 0.00 0.01 0.01 76 999.8
20260503031502 63 229 0.0 0.0 0.00 0.01 0.01 75 999.7
20260503031052 63 229 0.0 0.0 0.00 0.01 0.01 75 999.7
20260503030541 63 229 0.0 2.6 0.00 0.01 0.01 75 999.8
20260503025550 64 229 0.0 3.5 0.00 0.01 0.01 74 999.8
20260503025039 64 229 1.7 3.5 0.00 0.01 0.01 74 999.9
20260503024602 64 254 1.7 3.5 0.00 0.01 0.01 74 999.7
20260503024054 64 182 0.9 7.0 0.00 0.01 0.01 73 999.8
20260503023538 65 242 2.6 7.0 0.00 0.01 0.01 73 999.9
20260503023101 65 196 1.7 6.1 0.00 0.01 0.01 72 999.9
20260503022549 65 266 2.6 11.3 0.00 0.01 0.01 72 999.9
20260503022037 65 263 2.6 11.3 0.00 0.01 0.01 72 999.9
20260503021600 66 296 1.7 6.1 0.00 0.01 0.01 71 1000.0
20260503021050 66 192 2.6 9.6 0.00 0.01 0.01 71 999.9
20260503020538 67 199 3.5 9.6 0.00 0.01 0.01 71 1000.0
20260503020005 67 202 1.7 3.5 0.00 0.01 0.01 73 999.9
20260503015556 67 188 0.9 2.6 0.00 0.01 0.01 74 999.7
20260503015045 67 188 0.0 0.9 0.00 0.01 0.01 73 999.5
20260503014504 67 188 0.0 0.9 0.00 0.01 0.01 73 999.4
20260503014055 67 188 0.0 0.9 0.00 0.01 0.01 73 999.3
20260503013544 67 188 0.0 1.7 0.00 0.01 0.01 71 999.4
20260503013057 67 188 0.0 1.7 0.00 0.01 0.01 71 999.4
20260503012546 67 188 0.0 1.7 0.00 0.01 0.01 71 999.4
20260503012033 68 188 0.0 1.7 0.00 0.01 0.01 72 999.5
20260503011556 68 188 0.0 1.7 0.00 0.01 0.01 71 999.4
20260503011043 68 15 0.0 1.7 0.00 0.01 0.01 71 999.4
20260503010531 68 15 0.0 2.6 0.00 0.01 0.01 71 999.4
20260503010104 68 15 0.0 2.6 0.00 0.01 0.01 69 999.4
20260503005554 67 15 0.0 0.0 0.00 0.01 0.01 70 999.4
20260503005040 67 15 0.0 0.0 0.00 0.01 0.01 71 999.3
20260503004501 67 15 0.0 0.0 0.00 0.01 0.01 73 999.2
20260503004051 67 15 0.0 0.0 0.00 0.01 0.01 70 999.2
20260503003540 67 15 0.0 0.0 0.00 0.01 0.01 71 999.2
20260503003029 67 15 0.0 0.0 0.00 0.01 0.01 71 999.2
20260503002601 68 15 0.0 0.0 0.00 0.01 0.01 72 999.3
20260503002049 68 15 0.0 0.0 0.00 0.01 0.01 69 999.3
20260503001509 68 15 0.0 0.0 0.00 0.01 0.01 68 999.3
20260503001100 68 15 0.0 0.0 0.00 0.01 0.01 69 999.2
20260503000547 67 15 0.0 1.7 0.00 0.01 0.01 68 999.3
20260503000006 68 15 0.0 1.7 0.00 0.01 0.01 70 999.4
20260502235557 68 15 0.0 1.7 0.00 0.01 0.01 67 999.4
20260502235046 67 15 0.0 2.6 0.00 0.01 0.01 68 999.5
20260502234505 67 15 0.9 2.6 0.00 0.01 0.01 67 999.5
20260502234056 68 10 0.0 0.9 0.00 0.01 0.01 67 999.6
20260502233544 68 10 0.0 4.3 0.00 0.01 0.01 68 999.6
20260502233005 67 9 0.9 4.3 0.00 0.01 0.01 67 999.8
20260502232555 68 344 1.7 3.5 0.00 0.01 0.01 67 999.8
20260502232043 67 288 1.7 3.5 0.00 0.01 0.01 66 999.9
20260502231510 67 9 1.7 5.2 0.00 0.01 0.01 66 1000.0
20260502231104 67 65 2.6 5.2 0.00 0.01 0.01 67 1000.0
20260502230549 67 351 0.0 3.5 0.00 0.01 0.01 68 1000.1
20260502230007 67 186 0.0 4.3 0.00 0.01 0.01 68 1000.2
20260502225554 66 277 0.9 4.3 0.00 0.01 0.01 65 1000.2
20260502225042 66 252 0.0 7.0 0.00 0.01 0.01 67 1000.2
20260502224502 66 290 3.5 7.0 0.00 0.01 0.01 68 1000.4
20260502224054 66 17 1.7 5.2 0.00 0.01 0.01 67 1000.5
20260502223544 67 16 0.9 5.2 0.00 0.01 0.01 69 1000.6
20260502223012 66 315 0.9 5.2 0.00 0.01 0.01 68 1000.7
20260502222556 66 332 2.6 5.2 0.00 0.01 0.01 68 1000.7
20260502222046 65 52 1.7 7.0 0.00 0.01 0.01 69 1000.8
20260502221502 65 275 4.3 7.0 0.00 0.01 0.01 69 1000.8
20260502221055 65 305 2.6 4.3 0.00 0.01 0.01 69 1000.8
20260502220541 64 275 1.7 3.5 0.00 0.01 0.01 71 1000.9
20260502220101 64 298 1.7 4.3 0.00 0.01 0.01 73 1001.1
20260502215550 63 325 0.9 4.3 0.00 0.01 0.01 70 1001.1
20260502215038 64 282 0.9 4.3 0.00 0.01 0.01 71 1001.2
20260502214605 64 306 0.9 5.2 0.00 0.01 0.01 72 1001.2
20260502214049 65 16 0.9 5.2 0.00 0.01 0.01 70 1001.2
20260502213539 65 24 1.7 7.0 0.00 0.01 0.01 70 1001.3
20260502213101 65 310 3.5 7.0 0.00 0.01 0.01 69 1001.3
20260502212550 65 297 2.6 7.8 0.00 0.01 0.01 70 1001.5
20260502212038 64 284 2.6 6.1 0.00 0.01 0.01 70 1001.5
20260502211600 63 259 1.7 5.2 0.00 0.01 0.01 70 1001.7
20260502211048 63 47 2.6 5.2 0.00 0.01 0.01 72 1001.7
20260502210535 62 19 1.7 6.1 0.00 0.01 0.01 72 1001.9
20260502210121 63 306 2.6 6.1 0.00 0.01 0.01 73 1001.8
20260502205546 63 30 0.0 7.0 0.00 0.01 0.01 71 1001.9
20260502205036 63 348 3.5 7.0 0.00 0.01 0.01 72 1002.0
20260502204557 63 26 1.7 7.8 0.00 0.01 0.01 70 1002.1
20260502204046 63 344 3.5 7.8 0.00 0.01 0.01 72 1002.1
20260502203533 61 214 0.9 7.0 0.00 0.01 0.01 71 1002.2
20260502203004 61 235 1.7 7.0 0.00 0.01 0.01 73 1002.2
20260502202552 60 5 0.0 5.2 0.00 0.01 0.01 75 1002.4
20260502202042 61 333 2.6 5.2 0.00 0.01 0.01 74 1002.5
20260502201503 60 196 0.9 5.2 0.00 0.01 0.01 74 1002.6
20260502201053 60 288 0.9 6.1 0.00 0.01 0.01 75 1002.6
20260502200542 60 234 2.6 6.1 0.00 0.01 0.01 72 1002.7
20260502195551 61 59 3.5 7.8 0.00 0.01 0.01 76 1002.9
20260502195039 60 5 1.7 7.8 0.00 0.01 0.01 75 1002.8
20260502194602 60 263 2.6 7.0 0.00 0.01 0.01 74 1002.8
20260502194053 59 41 1.7 7.0 0.00 0.01 0.01 76 1002.9
20260502193540 60 55 3.5 7.0 0.00 0.01 0.01 78 1003.1
20260502193102 59 346 2.6 5.2 0.00 0.01 0.01 78 1003.2
20260502192549 57 231 0.9 5.2 0.00 0.01 0.01 78 1003.4
20260502192038 58 338 1.7 5.2 0.00 0.01 0.01 78 1003.5
20260502191509 57 40 2.6 6.1 0.00 0.01 0.01 81 1003.5
20260502191101 56 46 2.6 6.1 0.00 0.01 0.01 81 1003.3
20260502190545 55 360 2.6 5.2 0.00 0.01 0.01 82 1003.4
20260502190004 55 51 1.7 5.2 0.00 0.01 0.01 83 1003.5
20260502185553 55 49 1.7 4.3 0.00 0.01 0.01 83 1003.6
20260502185042 54 86 1.7 4.3 0.01 0.01 0.01 83 1003.7
20260502184502 55 46 1.7 4.3 0.01 0.01 0.01 84 1003.5
20260502184053 54 51 1.7 4.3 0.01 0.01 0.01 85 1003.7
20260502183542 54 360 1.7 3.5 0.01 0.01 0.01 84 1003.5
20260502183003 54 235 1.7 3.5 0.01 0.01 0.01 85 1003.8
20260502182554 54 267 1.7 2.6 0.01 0.01 0.01 86 1003.8
20260502182041 54 217 0.0 0.0 0.01 0.01 0.01 85 1003.7
20260502181512 53 215 0.0 0.0 0.01 0.01 0.01 86 1003.6
20260502181003 53 267 0.0 0.0 0.01 0.01 0.01 86 1003.6
20260502180551 52 267 0.0 0.0 0.01 0.01 0.01 85 1003.6
20260502164057 53 315 0.9 2.6 0.00 0.00 0.00 81 1004.0
20260502163545 53 315 0.0 2.6 0.00 0.00 0.00 80 1004.1
20260502163009 53 278 0.0 2.6 0.00 0.00 0.00 79 1004.1
20260502162558 53 278 0.0 2.6 0.00 0.00 0.00 79 1004.1
20260502162046 53 360 0.9 3.5 0.00 0.00 0.00 80 1004.0
20260502161507 53 302 0.9 3.5 0.00 0.00 0.00 80 1003.9
20260502161058 53 298 1.7 3.5 0.00 0.00 0.00 80 1004.0
20260502160546 53 360 0.9 3.5 0.00 0.00 0.00 80 1004.0
20260502152048 50 333 0.0 0.0 0.00 0.00 0.00 83 1004.1
20260502151514 50 332 0.0 0.9 0.00 0.00 0.00 84 1004.1
20260502151003 50 338 0.0 2.6 0.00 0.00 0.00 84 1003.9
20260502150553 50 338 0.0 2.6 0.00 0.00 0.00 84 1003.9
20260502130542 47 280 0.0 2.6 0.00 0.00 0.00 84 1003.9
20260502123546 47 250 0.9 2.6 0.00 0.00 0.00 83 1003.9
20260502123008 47 284 0.9 3.5 0.00 0.00 0.00 83 1003.9
20260502122558 47 268 0.9 3.5 0.00 0.00 0.00 82 1003.8
20260502122046 47 271 0.0 1.7 0.00 0.00 0.00 82 1003.7
20260502121511 48 271 0.0 2.6 0.00 0.00 0.00 82 1003.7
20260502121057 48 271 0.0 2.6 0.00 0.00 0.00 82 1003.6
20260502120547 48 271 0.0 2.6 0.00 0.00 0.00 82 1003.6
20260502115551 48 249 0.9 2.6 0.00 0.00 0.00 81 1003.8
20260502115038 48 242 0.0 1.7 0.00 0.00 0.00 81 1003.7
20260502114603 48 242 0.0 1.7 0.00 0.00 0.00 81 1003.8
20260502114050 48 242 0.0 2.6 0.00 0.00 0.00 80 1003.7
20260502113538 48 242 0.0 2.6 0.00 0.00 0.00 80 1003.8
20260502113100 48 253 0.9 2.6 0.00 0.00 0.00 80 1003.7
20260502112547 49 236 0.0 2.6 0.00 0.00 0.00 80 1003.9
20260502112035 49 233 0.9 2.6 0.00 0.00 0.00 80 1003.8
20260502111505 49 220 0.9 2.6 0.00 0.00 0.00 80 1004.1
20260502111055 49 217 0.0 2.6 0.00 0.00 0.00 80 1004.0
20260502110543 49 217 0.9 2.6 0.00 0.00 0.00 79 1004.0
20260502110003 49 302 0.9 3.5 0.00 0.00 0.00 79 1004.0
20260502105556 49 303 0.9 3.5 0.00 0.00 0.00 79 1003.9
20260502105043 49 63 0.9 4.3 0.00 0.00 0.00 79 1003.7
20260502104512 49 205 0.0 1.7 0.00 0.00 0.00 78 1003.9
20260502104103 50 202 0.9 1.7 0.00 0.00 0.00 78 1003.9
20260502103551 50 225 0.0 1.7 0.00 0.00 0.00 78 1003.8
20260502103013 50 225 0.0 1.7 0.00 0.00 0.00 78 1003.9
20260502102602 50 223 0.0 3.5 0.00 0.00 0.00 78 1003.9
20260502102050 50 223 0.9 3.5 0.00 0.00 0.00 78 1003.9
20260502101522 50 323 0.9 2.6 0.00 0.00 0.00 78 1003.9
20260502101009 50 215 0.9 2.6 0.00 0.00 0.00 77 1003.9
20260502100559 50 308 0.9 1.7 0.00 0.00 0.00 77 1003.8
20260502091515 51 235 0.9 1.7 0.00 0.00 0.00 77 1004.8
20260502091003 51 340 0.0 2.6 0.00 0.00 0.00 76 1004.6
20260502090553 51 336 0.0 2.6 0.00 0.00 0.00 76 1004.7
20260502071512 55 240 1.7 4.3 0.00 0.00 0.00 66 1004.6
20260502071103 55 5 0.0 2.6 0.00 0.00 0.00 67 1004.7
20260502070553 55 5 0.0 2.6 0.00 0.00 0.00 66 1004.7
20260502070009 55 42 0.0 1.7 0.00 0.00 0.00 66 1004.7
20260502065601 55 272 0.0 3.5 0.00 0.00 0.00 65 1004.8
20260502065042 55 19 1.7 3.5 0.00 0.00 0.00 66 1004.7
20260502064502 55 41 0.0 1.7 0.00 0.00 0.00 65 1004.6
20260502064053 55 41 0.0 2.6 0.00 0.00 0.00 65 1004.7
20260502063541 55 36 0.9 2.6 0.00 0.00 0.00 65 1004.7
20260502063002 56 33 0.9 4.3 0.00 0.00 0.00 64 1004.8
20260502062553 56 300 0.9 4.3 0.00 0.00 0.00 65 1004.6
20260502062040 56 355 0.0 1.7 0.00 0.00 0.00 66 1004.6
20260502061500 56 355 0.9 1.7 0.00 0.00 0.00 66 1004.6
20260502061050 57 355 0.0 1.7 0.00 0.00 0.00 66 1004.4
20260502060540 57 350 0.0 1.7 0.00 0.00 0.00 65 1004.3
20260502060006 57 350 0.0 1.7 0.00 0.00 0.00 65 1004.4
20260502055558 57 350 0.0 1.7 0.00 0.00 0.00 65 1004.3
20260502055045 57 350 0.9 1.7 0.00 0.00 0.00 65 1004.3
20260502054504 57 350 0.0 2.6 0.00 0.00 0.00 65 1004.3
20260502054057 57 350 0.0 3.5 0.00 0.00 0.00 65 1004.3
20260502053544 57 360 1.7 3.5 0.00 0.00 0.00 64 1004.3
20260502053003 58 44 1.7 3.5 0.00 0.00 0.00 64 1004.2
20260502052553 58 14 0.0 2.6 0.00 0.00 0.00 64 1004.2
20260502052041 58 14 0.9 2.6 0.00 0.00 0.00 64 1004.3
20260502051502 58 169 0.9 2.6 0.00 0.00 0.00 64 1004.2
20260502051051 58 165 0.0 1.7 0.00 0.00 0.00 63 1004.4
20260502050539 58 165 0.9 1.7 0.00 0.00 0.00 63 1004.3
20260502050007 59 165 0.0 3.5 0.00 0.00 0.00 62 1004.3
20260502045559 59 269 0.0 3.5 0.00 0.00 0.00 61 1004.2
20260502045046 59 40 0.0 2.6 0.00 0.00 0.00 60 1004.2